Starlink 6173

operational
NORAD ID: 56385 Int'l Des: 2023-061 Owner: SPXS Country: US Constellation: starlink
LEOCIRCULAR

Starlink 6173について

説明を読み込み中...

リアルタイム位置

3D地球を読み込み中...

次回通過

高度履歴

Altitude vs Time

uPlot chart will show altitude changes over time

軌道要素

1 56385U 23061M 25351.17033232 .00000036 00000-0 17699-4 0 9991
2 56385 43.0040 285.6755 0001141 272.5827 87.4885 15.02539473144343
Epoch: Dec 17, 2025 • Age: 9 hours

現在のステータス

高度 558.9 km
速度 7.59 km/s
衛星直下点 20.52°N, 162.91°E
打ち上げ日 May 4, 2023
運用期間 2.6 years
タイプ internet

技術仕様

分類 Payload
質量 305.00 kg
乾燥質量 290.00 kg
総質量 305.00 kg
長さ 0.20 m
直径 2.80 m
スパン 9.00 m
形状 Box + pan
製造者 SPXS
バスタイプ Starlink
フェーズステータス In Orbit
所有者/国 SPXS/US

大規模コンステレーション

Loading constellations...